Saturday, August 18, 2018, 2:51 AM GMT
Back to Local

CWTY, Trois Rivieres

Location: , , Canada Lat: 46.35
Local Time: 2:51 AM GMT ( 2:51 GMT) Lon: -72.517
Time Zone: GMT Elev: 19 ft

Show me the last for .
Show Coded

Time T Td Feel RH Dir Speed Gust Alt SLP Vis Weather Sky Remarks
2018-08-18 02:00 63 62 - 97 350° 9 - - 29.85 0 1-hr Precip Total: 0.19"
2018-08-18 01:00 63 62 - 96 350° 9 21 - 29.83 0 Peak wind: 23 mph (20 kts) from 320° at 13 min
1-hr Precip Total: 0.34"
2018-08-18 00:00 66 64 - 90 40° 6 - - 29.81 0 None
2018-08-17 23:00 66 65 - 95 60° 13 - - 29.82 0 1-hr Precip Total: 0.05"
2018-08-17 22:00 65 63 - 92 20° 7 - - 29.84 0 None
2018-08-17 21:00 66 63 - 91 30° 7 - - 29.87 0 1-hr Precip Total: 0.07"
2018-08-17 20:00 66 63 - 89 30° 7 - - 29.89 0 None
2018-08-17 19:00 68 62 - 80 20° 6 - - 29.91 0 None
2018-08-17 18:00 70 60 - 71 10° 5 - - 29.94 0 None
2018-08-17 17:00 70 60 76 69 30° 5 - - 29.96 0 None
2018-08-17 16:00 68 58 - 70 360° 5 - - 29.99 0 None
2018-08-17 15:00 67 57 - 69 50° 7 - - 30.01 0 None
2018-08-17 14:00 65 56 - 72 60° 7 - - 30.03 0 None
2018-08-17 13:00 63 56 - 79 80° 8 - - 30.04 0 None
2018-08-17 12:00 61 54 - 78 60° 3 - - 30.07 0 None
2018-08-17 11:00 58 57 - 95 20° 2 - - 30.06 0 None
2018-08-17 10:00 55 53 - 93 350° 5 - - 30.06 0 None
2018-08-17 09:00 56 53 - 92 350° 3 - - 30.06 0 None
2018-08-17 08:00 56 54 - 91 10° 3 - - 30.06 0 None
2018-08-17 07:00 58 54 - 87 350° 3 - - 30.06 0 None
2018-08-17 06:00 59 53 - 80 10° 3 - - 30.07 0 None
2018-08-17 05:00 65 53 - 67 140° 2 - - 30.08 0 None
2018-08-17 04:00 65 55 - 70 40° 2 - - 30.07 0 None
2018-08-17 03:00 66 53 - 61 150° 3 - - 30.07 0 None

Support USWX by starting your Amazon purchase here.